Wind_Speed
7 7 10 13 17 19 21 22 22 23 23 22 21 18 16 14 14 14 11 11 12 11 12 10 10 12 12 11 10 8 8 8 7 7 5 6 5 6 7 8 9 13 3
5 7 6 13 16 13 14 17 20 23 25 33 23 22 19 17 16 16 16 15 15 12 11 13 13 14 12 12 11 8 7 8 9 8 7 7 5 5 5 6 6 5 13
12 9 8 11 14 13 14 11 13 14 20 21 27 9 15 15 14 14 18 17 17 16 16 17 16 15 13 13 10 11 11 10 10 10 11 9 8 7 7 6 5 4 4
15 11 9 8 9 8 12 13 13 16 19 17 18 17 16 15 15 9 15 19 19 16 18 20 19 18 15 14 13 12 14 11 11 11 12 11 10 9 8 7 6 6 5
15 13 11 9 8 7 9 13 14 15 16 19 16 11 14 16 15 10 13 14 17 22 25 22 20 18 16 16 16 13 14 12 12 12 10 11 10 10 8 9 7 5 5
20 19 15 13 13 13 10 10 13 13 15 16 18 18 14 12 15 15 17 15 17 24 26 25 23 16 18 15 15 15 15 14 13 11 10 9 9 9 8 8 9 9 6
21 20 19 16 13 12 12 12 11 14 12 13 15 15 15 16 17 15 17 22 23 25 22 31 24 20 16 16 16 17 17 15 15 16 14 11 10 10 10 10 12 12 11
24 23 20 18 15 12 14 13 17 17 17 17 19 16 15 15 15 16 17 20 22 27 20 25 27 17 14 15 16 18 18 17 16 17 16 15 15 13 13 13 16 17 18
25 24 20 18 18 17 16 15 15 17 22 20 20 18 17 17 15 13 15 22 23 16 25 25 21 18 15 16 17 18 20 19 18 18 17 16 14 13 15 16 17 19 22
23 22 21 20 20 18 18 19 22 24 24 24 22 21 20 18 17 16 16 16 13 5 18 15 14 17 17 20 22 26 25 22 22 24 22 17 14 15 15 26 25 24 24
23 25 26 26 26 25 25 26 26 25 26 26 25 26 26 24 22 24 23 21 15 11 13 15 19 18 15 16 21 24 21 28 31 31 26 21 19 10 11 19 25 29 25
27 28 30 31 32 33 35 34 33 34 36 35 35 34 34 32 30 29 30 28 26 24 23 23 23 23 24 25 24 24 22 25 26 27 21 21 23 26 24 23 26 29 28
39 40 40 42 44 45 46 46 47 45 43 42 39 39 39 37 36 34 34 36 36 36 33 31 30 29 31 31 31 31 31 27 28 31 31 28 26 26 27 24 25 29 29
46 44 43 41 39 39 41 42 43 44 45 48 47 47 44 43 41 39 37 36 39 41 39 38 33 30 29 28 29 31 33 33 31 30 33 32 31 29 25 25 25 27 29
42 43 43 43 44 44 42 41 42 43 43 43 44 44 45 47 47 45 44 42 40 39 39 38 36 35 33 29 28 26 30 32 33 31 32 30 31 28 27 27 28 28 27
43 43 44 46 47 48 48 47 45 45 44 41 40 44 44 44 44 43 43 43 40 37 39 40 41 40 40 36 35 33 30 30 30 30 28 28 28 28 27 28 28 27 25
41 41 42 42 42 43 43 46 48 45 43 41 41 36 38 42 42 44 44 44 42 41 41 42 45 46 47 43 35 34 30 28 27 29 27 24 25 26 26 28 27 26 24
43 43 42 42 42 42 42 42 44 46 44 41 35 35 32 31 36 39 40 42 48 51 51 50 51 52 48 44 36 31 31 28 25 27 25 21 23 24 25 25 25 24 20
42 41 41 42 42 42 41 40 39 41 41 41 36 33 28 27 25 30 36 43 46 47 48 49 48 46 43 42 37 31 31 28 27 26 26 26 23 26 28 25 22 21 19
37 36 36 37 37 37 36 35 35 35 36 38 39 35 30 37 32 35 33 35 37 43 46 46 44 42 40 37 35 29 30 30 29 26 26 25 27 27 28 23 22 23 21
30 32 34 36 39 40 41 40 40 37 36 33 32 34 30 36 36 32 31 30 30 32 36 41 42 39 36 34 30 30 29 29 27 25 26 27 30 29 29 26 23 20 18
38 41 44 46 49 51 52 52 49 48 43 43 38 32 29 30 28 33 31 32 35 34 34 35 37 38 37 34 28 30 27 26 26 26 26 29 30 29 28 25 20 18 18
45 49 51 54 53 54 57 56 57 55 52 51 47 44 41 40 36 35 36 36 37 35 32 33 31 35 36 32 30 27 25 28 26 30 30 26 28 27 26 21 19 20 19
50 52 56 59 58 52 48 47 49 52 55 54 51 46 41 36 38 39 38 37 35 35 36 38 28 33 36 35 29 25 27 29 29 28 27 24 25 21 22 20 21 19 19
56 58 45 39 41 43 45 46 45 38 37 42 51 57 51 45 37 35 36 38 37 34 30 25 28 46 29 21 23 26 28 28 26 25 23 25 19 22 22 21 20 20 20
38 27 30 31 32 32 31 33 30 32 33 27 28 36 51 50 47 38 30 26 26 29 22 16 11 14 17 20 24 21 21 22 20 20 19 19 23 19 18 21 20 19 19
Wind_Direction
290 309 316 327 309 296 289 290 288 280 272 270 272 281 289 287 287 282 275 272 279 280 279 271 261 260 267 271 271 286 299 298 302 289 277 267 299 332 346 356 5 30 287
324 314 311 353 338 321 308 286 282 281 275 258 245 242 251 260 267 276 272 270 270 265 265 269 267 270 259 261 271 279 279 271 279 287 275 269 275 289 335 328 351 17 37
253 280 292 357 344 345 341 321 290 291 297 286 315 274 257 262 268 279 280 280 278 274 269 267 264 267 263 249 262 277 275 264 264 268 270 269 275 281 294 298 321 322 20
268 269 290 316 340 352 347 328 311 303 316 309 316 339 282 265 270 283 298 302 282 274 273 266 261 259 259 248 263 258 263 267 262 261 267 268 274 274 278 295 295 294 272
266 264 267 279 301 305 315 313 313 320 321 313 309 310 339 325 320 311 297 303 275 300 274 267 258 252 251 252 254 259 258 261 257 257 259 260 269 274 278 282 279 260 264
251 263 269 279 288 299 296 296 302 312 327 315 312 315 310 314 322 300 284 278 266 283 295 273 253 248 253 247 253 252 252 250 250 253 255 258 255 267 270 276 274 278 252
260 262 267 266 266 274 284 286 298 295 303 303 310 313 314 314 317 325 293 273 259 264 258 261 253 247 245 244 240 244 246 252 253 256 258 264 263 265 267 276 276 271 269
256 257 260 265 266 273 275 279 287 284 286 296 301 306 308 311 323 337 347 333 316 259 263 255 232 238 243 250 237 243 247 252 254 251 252 252 262 266 271 273 278 280 278
263 265 266 265 275 280 280 281 278 284 284 288 292 294 292 301 318 326 325 335 350 269 252 243 245 251 252 254 251 250 250 250 255 257 252 252 262 257 274 276 285 280 276
268 273 279 284 282 276 268 267 272 274 272 271 278 283 283 288 294 297 303 312 328 343 199 226 268 261 255 251 256 254 252 250 251 249 249 256 261 268 291 298 288 300 283
276 277 277 275 275 273 269 270 268 268 266 271 272 274 276 277 281 284 284 284 283 276 259 256 271 278 285 285 286 291 282 260 259 257 242 251 248 282 268 270 281 298 289
271 272 274 275 274 274 274 273 271 272 274 272 271 269 270 272 273 275 277 277 276 274 271 270 274 280 287 287 288 289 278 268 267 286 271 252 264 262 276 274 271 294 294
279 278 277 276 277 276 274 272 270 269 266 266 264 265 266 268 272 274 277 280 280 278 277 273 277 281 283 282 279 278 279 272 264 261 264 265 273 269 270 273 282 291 295
286 284 282 280 278 277 276 274 272 270 266 266 264 264 264 262 262 264 268 272 279 282 283 284 281 278 280 277 276 271 272 276 274 268 264 262 265 268 273 271 280 291 290
287 288 288 287 285 284 280 277 276 274 272 270 268 265 264 263 263 261 262 264 268 274 278 274 279 285 285 285 281 281 272 269 270 269 265 262 263 265 268 274 281 284 282
286 286 286 285 285 284 283 282 279 278 276 273 270 267 264 262 259 260 262 266 263 260 258 268 272 277 283 290 290 288 287 277 271 267 265 255 257 261 266 269 274 278 270
289 287 286 286 286 287 286 284 283 277 275 273 275 270 260 256 256 259 254 251 250 250 251 255 265 272 280 285 282 284 286 280 275 275 264 252 246 255 261 264 266 261 266
293 293 292 290 289 288 288 287 282 279 277 274 268 267 266 269 254 252 252 253 250 248 250 254 257 265 272 274 273 276 282 278 268 272 263 251 251 254 258 257 251 258 253
294 294 294 292 290 290 290 289 285 282 277 275 275 266 261 263 257 248 248 251 251 252 253 255 257 260 262 265 266 264 276 273 263 260 261 253 252 251 256 255 254 259 252
290 289 289 290 291 292 293 291 286 281 276 273 271 269 260 247 258 260 256 255 254 256 258 261 261 259 259 261 260 258 270 269 261 253 255 251 250 248 255 248 249 250 254
297 296 293 291 291 290 288 287 286 282 281 276 272 267 260 252 254 257 255 254 254 253 254 258 261 258 253 250 247 255 265 258 252 250 250 241 236 244 242 248 249 254 256
297 296 295 293 291 289 288 283 281 277 271 266 263 259 257 249 257 254 257 258 254 251 252 261 260 254 255 248 244 250 257 250 243 240 236 242 242 237 240 253 258 255 260
302 301 297 296 290 289 286 278 275 273 267 260 261 261 252 250 253 251 250 254 262 263 259 260 267 260 242 237 245 252 249 242 234 239 239 244 237 240 243 249 251 258 263
305 304 301 298 293 290 287 283 279 273 265 256 252 248 249 252 250 250 249 251 254 259 265 266 275 264 241 246 241 240 237 236 236 236 244 236 243 244 236 238 247 252 254
312 312 310 305 299 292 288 283 276 274 272 262 250 242 240 245 247 248 250 251 255 259 259 292 272 265 205 219 231 231 230 237 231 238 244 238 244 232 237 245 247 251 256
315 312 322 325 327 316 296 293 279 264 265 268 257 246 236 238 240 243 242 244 245 251 264 258 248 188 211 224 227 220 222 225 230 237 228 220 225 231 237 245 247 254 260
Height
3223 3223 3222 3223 3223 3223 3223 3223 3223 3222 3221 3219 3216 3218 3218 3218 3221 3221 3221 3221 3222 3220 3219 3218 3218 3218 3219 3218 3217 3217 3217 3215 3215 3213 3213 3213 3212 3210 3209 3208 3206 3203 3200
3222 3220 3220 3220 3220 3219 3219 3219 3218 3217 3216 3208 3202 3211 3214 3214 3216 3216 3217 3217 3216 3213 3215 3215 3214 3214 3216 3215 3215 3214 3214 3214 3213 3212 3211 3211 3210 3208 3207 3206 3206 3205 3202
3218 3216 3216 3216 3216 3215 3215 3215 3214 3213 3212 3211 3200 3176 3204 3207 3208 3209 3212 3212 3211 3211 3211 3210 3211 3210 3211 3211 3211 3211 3210 3211 3210 3211 3210 3209 3208 3207 3206 3205 3204 3204 3203
3213 3213 3212 3212 3212 3211 3212 3212 3210 3209 3209 3207 3206 3207 3202 3205 3202 3201 3207 3207 3207 3206 3205 3206 3206 3205 3207 3208 3206 3207 3207 3206 3206 3206 3206 3205 3205 3205 3204 3203 3202 3202 3202
3211 3211 3210 3210 3209 3208 3208 3208 3208 3206 3206 3204 3204 3205 3202 3201 3199 3198 3202 3202 3204 3204 3201 3201 3201 3200 3199 3201 3203 3204 3203 3203 3202 3202 3202 3202 3202 3202 3202 3201 3200 3199 3199
3206 3206 3206 3206 3205 3206 3205 3205 3204 3203 3202 3199 3198 3198 3198 3197 3196 3195 3197 3198 3198 3198 3197 3197 3197 3195 3195 3195 3197 3199 3201 3200 3200 3199 3199 3199 3199 3198 3198 3198 3198 3196 3196
3201 3201 3202 3202 3202 3202 3203 3202 3201 3199 3198 3198 3196 3195 3194 3194 3192 3191 3191 3190 3190 3191 3191 3193 3193 3193 3190 3191 3191 3194 3195 3195 3196 3196 3196 3197 3196 3195 3194 3193 3193 3193 3192
3196 3197 3197 3197 3197 3197 3197 3197 3198 3197 3197 3194 3192 3190 3189 3190 3190 3189 3185 3185 3182 3180 3183 3186 3186 3187 3187 3187 3188 3189 3190 3190 3191 3191 3191 3191 3191 3190 3189 3188 3188 3188 3187
3194 3193 3194 3193 3193 3191 3191 3191 3193 3193 3193 3191 3190 3189 3188 3187 3185 3185 3185 3181 3176 3173 3176 3181 3182 3182 3182 3182 3182 3183 3183 3185 3186 3185 3186 3187 3186 3186 3186 3185 3184 3182 3182
3188 3189 3188 3189 3188 3187 3186 3186 3186 3186 3187 3186 3184 3184 3184 3183 3182 3182 3181 3180 3180 3175 3175 3178 3177 3177 3178 3176 3173 3174 3176 3178 3178 3178 3179 3181 3182 3182 3180 3181 3180 3177 3175
3184 3184 3182 3182 3181 3180 3179 3178 3177 3178 3179 3179 3179 3178 3178 3179 3177 3175 3176 3176 3175 3176 3176 3176 3173 3172 3170 3170 3169 3163 3164 3171 3172 3171 3170 3176 3175 3174 3173 3172 3171 3170 3168
3176 3175 3175 3174 3173 3172 3170 3170 3169 3168 3168 3169 3169 3170 3170 3170 3170 3170 3168 3168 3168 3168 3168 3168 3166 3164 3163 3161 3162 3163 3164 3162 3162 3160 3155 3165 3167 3167 3167 3166 3166 3163 3159
3165 3164 3164 3163 3161 3159 3158 3157 3156 3155 3155 3155 3156 3157 3158 3160 3159 3160 3159 3158 3158 3157 3158 3158 3157 3155 3156 3155 3154 3156 3154 3156 3154 3156 3156 3155 3158 3159 3159 3158 3157 3155 3152
3149 3148 3147 3146 3146 3145 3143 3141 3140 3140 3140 3140 3141 3142 3144 3146 3147 3148 3147 3147 3146 3145 3145 3144 3145 3146 3145 3145 3145 3146 3144 3143 3142 3142 3143 3148 3149 3149 3150 3149 3149 3146 3143
3136 3134 3132 3130 3129 3128 3128 3128 3127 3126 3125 3125 3125 3126 3127 3128 3131 3132 3133 3134 3135 3136 3136 3133 3134 3135 3135 3135 3135 3135 3135 3135 3135 3134 3134 3136 3137 3139 3140 3140 3140 3138 3137
3125 3123 3120 3117 3115 3113 3111 3111 3112 3110 3111 3111 3111 3110 3111 3112 3114 3117 3118 3119 3121 3123 3121 3121 3122 3124 3124 3125 3125 3125 3125 3124 3124 3125 3124 3125 3127 3130 3130 3131 3131 3130 3129
3112 3110 3106 3104 3102 3099 3097 3094 3091 3093 3093 3094 3094 3095 3095 3096 3099 3101 3103 3105 3107 3108 3108 3111 3111 3111 3112 3114 3115 3115 3115 3115 3114 3114 3115 3116 3118 3119 3121 3121 3121 3122 3122
3098 3095 3092 3090 3087 3085 3083 3080 3077 3075 3075 3077 3080 3080 3082 3083 3084 3087 3090 3091 3092 3095 3097 3099 3101 3102 3103 3103 3104 3105 3105 3105 3105 3105 3106 3107 3109 3110 3111 3112 3113 3115 3115
3085 3082 3079 3075 3073 3070 3068 3066 3064 3063 3062 3062 3064 3067 3071 3071 3072 3071 3074 3076 3079 3080 3084 3085 3088 3091 3092 3092 3093 3094 3095 3095 3096 3097 3098 3101 3102 3102 3103 3104 3105 3107 3109
3074 3071 3068 3064 3061 3058 3055 3053 3051 3050 3049 3049 3050 3053 3057 3059 3059 3062 3063 3064 3065 3067 3070 3071 3074 3077 3079 3081 3082 3085 3085 3085 3087 3088 3091 3094 3095 3096 3096 3097 3099 3100 3103
3062 3059 3057 3053 3049 3046 3043 3040 3039 3037 3036 3036 3037 3040 3043 3045 3045 3049 3051 3053 3054 3055 3057 3058 3059 3062 3066 3069 3072 3074 3075 3076 3078 3081 3083 3086 3086 3088 3088 3090 3093 3095 3097
3054 3049 3045 3040 3035 3031 3028 3026 3023 3022 3022 3022 3024 3027 3030 3032 3035 3037 3039 3039 3042 3044 3045 3046 3047 3050 3053 3058 3062 3064 3065 3067 3071 3074 3075 3075 3078 3081 3083 3084 3086 3088 3089
3042 3036 3030 3024 3017 3011 3006 3003 3001 3001 3002 3005 3008 3010 3015 3018 3021 3024 3026 3029 3030 3032 3034 3036 3037 3039 3041 3045 3051 3054 3056 3059 3061 3064 3066 3068 3072 3074 3076 3078 3081 3082 3083
3028 3020 3011 3002 2994 2986 2980 2977 2976 2975 2976 2981 2987 2992 2997 3002 3007 3011 3013 3017 3021 3023 3025 3026 3026 3028 3033 3038 3041 3044 3047 3050 3054 3057 3059 3061 3065 3067 3069 3072 3075 3077 3078
3010 3001 2991 2982 2974 2968 2962 2958 2956 2955 2954 2956 2961 2970 2979 2987 2993 2998 3002 3007 3010 3012 3014 3014 3012 3012 3021 3029 3033 3037 3040 3043 3048 3050 3054 3057 3059 3062 3065 3067 3068 3070 3071
2995 2989 2982 2973 2962 2953 2946 2941 2937 2939 2942 2942 2944 2949 2959 2970 2980 2988 2993 2998 3001 3003 3006 3008 3010 3010 3016 3023 3026 3030 3034 3038 3042 3045 3047 3050 3053 3056 3059 3060 3061 3064 3065